[[{"header":{"parameterUnit":"m.s-1","parameterCategory":1,"la1":30.2991,"la2":30.254,"lo1":-89.0895,"lo2":-89.0444,"dy":0.0017,"dx":0.0017,"nx":28,"ny":28,"refTime":"2025-03-19T03:00:00:Z","depth":0,"parameterNumber":2,"parameterNumberName":"U-component_of_WINDS"},"data":[0,0,0,0,0,0,0,0,0,0,0,0,0,0,0,0,0,0,0,0,0,0,0,0,0,0,0,0,0,0,0,0,0,0,0,0,0,0,0,0,0,0,0,0,0,0,0,0,0,0,0,0,0,0,0,0,0,0,-0.5876,-0.5876,0,-0.5829,-0.5829,-0.5828,-0.5803,-0.5803,-0.5803,-0.5803,-0.5756,-0.5755,-0.5754,0,0,0,0,0,0,0,0,0,0,0,0,0,-0.5946,-0.5945,-0.5876,-0.5876,-0.5875,-0.5829,-0.5829,-0.5828,-0.5803,-0.5803,-0.5803,-0.5803,-0.5756,-0.5755,-0.5754,0,0,0,0,0,0,0,0,0,0,0,0,0,-0.5909,-0.5945,-0.5876,-0.5857,-0.5855,-0.583,-0.5829,-0.5828,-0.5803,-0.5803,-0.5803,-0.5803,-0.5757,-0.5755,-0.5753,-0.5744,0,0,-0.5748,-0.5747,0,0,0,0,0,0,0,0,-0.5911,-0.5907,-0.586,-0.5858,-0.5856,-0.5822,-0.5836,-0.58,-0.5803,-0.5823,-0.5803,-0.5803,-0.5778,-0.5775,-0.5766,-0.5742,-0.574,-0.5748,-0.5747,-0.5746,-0.5745,0,0,0,0,0,0,0,-0.5914,-0.5909,-0.5858,-0.586,-0.5857,-0.5851,-0.5846,-0.5829,-0.5802,-0.5821,-0.5819,-0.5814,-0.5777,-0.5768,-0.5765,-0.574,-0.5748,-0.5746,-0.5745,-0.5745,-0.5707,-0.5707,0,0,0,0,0,0,-0.5919,-0.5911,-0.5859,-0.5856,-0.5884,-0.585,-0.5844,-0.5833,-0.5802,-0.5797,-0.5814,-0.5813,-0.5771,-0.5767,-0.5763,-0.5751,-0.5746,-0.5744,-0.5743,-0.5707,-0.5707,-0.5707,0,0,0,0,0,0,-0.5921,-0.5915,-0.5861,-0.5883,-0.5876,-0.5849,-0.5837,-0.5832,-0.5823,-0.5796,-0.5791,-0.581,-0.5771,-0.5765,-0.5749,-0.5749,-0.5744,-0.5742,-0.5707,-0.5707,-0.5707,-0.5727,0,0,0,0,0,0,-0.5923,-0.5916,-0.5911,-0.5883,-0.5875,-0.5848,-0.5836,-0.5831,-0.582,-0.5818,-0.5791,-0.5786,-0.577,-0.5752,-0.5748,-0.5746,-0.5741,-0.5707,-0.5707,-0.5707,-0.5726,-0.5727,-0.5729,0,0,0,0,0,-0.5926,-0.5919,-0.5911,-0.5905,-0.5869,-0.5848,-0.5843,-0.5824,-0.582,-0.5816,-0.5799,-0.5787,-0.575,-0.5751,-0.5745,-0.5744,-0.5707,-0.5707,-0.5707,-0.5725,-0.5727,-0.5729,0,0,0,0,0,0,-0.5948,-0.5915,-0.5906,-0.589,-0.5872,-0.5843,-0.5837,-0.5826,-0.5809,-0.5808,-0.5786,-0.578,-0.5766,-0.5753,-0.5755,-0.5734,-0.5727,-0.5726,-0.5743,-0.5744,-0.5746,-0.5749,-0.5739,0,0,0,0,0,-0.5951,-0.5936,-0.5908,-0.5896,-0.5888,-0.5864,-0.5855,-0.5842,-0.5822,-0.5815,-0.5796,-0.5779,-0.5763,-0.5753,-0.5737,-0.5724,-0.5718,-0.572,-0.5722,-0.5723,-0.5722,-0.5716,-0.5716,-0.5708,-0.5708,-0.5708,0,0,-0.5957,-0.5937,-0.5929,-0.59,-0.5885,-0.5871,-0.5858,-0.5843,-0.5833,-0.5812,-0.5796,-0.5782,-0.5761,-0.5747,-0.574,-0.5736,-0.5724,-0.5723,-0.5724,-0.5723,-0.5716,-0.5717,-0.5717,-0.5708,-0.5708,-0.5708,0,0,-0.5961,-0.5944,-0.5933,-0.5917,-0.5894,-0.5879,-0.5876,-0.585,-0.584,-0.5823,-0.5808,-0.5795,-0.5768,-0.5754,-0.5743,-0.5743,-0.5732,-0.5739,-0.5746,-0.5739,-0.574,-0.574,-0.5741,-0.5741,-0.5738,-0.5738,-0.5738,0,-0.5971,-0.5949,-0.5928,-0.5915,-0.5903,-0.5884,-0.5873,-0.5859,-0.5832,-0.5825,-0.5821,-0.5787,-0.5772,-0.5754,-0.5754,-0.5746,-0.5743,-0.5741,-0.5741,-0.5742,-0.5742,-0.5742,-0.5742,-0.5739,-0.5739,-0.5739,-0.5739,0,-0.5963,-0.5948,-0.5941,-0.5915,-0.5903,-0.5891,-0.587,-0.586,-0.5848,-0.5834,-0.5818,-0.5798,-0.5778,-0.5773,-0.5762,-0.5755,-0.5753,-0.5745,-0.5738,-0.5744,-0.5744,-0.5743,-0.5741,-0.574,-0.574,-0.574,0,0,-0.5979,-0.5942,-0.594,-0.5929,-0.5902,-0.589,-0.5878,-0.5858,-0.585,-0.5833,-0.5822,-0.58,-0.5794,-0.5781,-0.5769,-0.5763,-0.5765,-0.5756,-0.5755,-0.5759,-0.5756,-0.5762,-0.5762,-0.5758,-0.5757,-0.5757,-0.5758,0,-0.5979,-0.5954,-0.5936,-0.5919,-0.5905,-0.5887,-0.5877,-0.586,-0.5846,-0.5833,-0.5818,-0.5803,-0.5795,-0.5788,-0.5782,-0.5766,-0.5764,-0.5766,-0.5748,-0.5748,-0.5754,-0.5762,-0.5768,-0.5769,-0.5758,-0.5758,-0.5758,0,-0.5975,-0.5958,-0.5939,-0.5915,-0.5908,-0.5899,-0.588,-0.5867,-0.5848,-0.5839,-0.5826,-0.5813,-0.58,-0.5794,-0.5777,-0.5778,-0.577,-0.5762,-0.5761,-0.5759,-0.5753,-0.576,-0.5769,-0.5769,-0.5757,-0.5757,-0.5757,0,-0.5989,-0.5961,-0.5946,-0.5937,-0.5908,-0.5902,-0.589,-0.587,-0.586,-0.5844,-0.5837,-0.582,-0.581,-0.5798,-0.5781,-0.5778,-0.5765,-0.5758,-0.5758,-0.5758,-0.5755,-0.5756,-0.5763,-0.575,-0.575,-0.575,-0.575,0,-0.599,-0.598,-0.5952,-0.5943,-0.5931,-0.5911,-0.59,-0.5886,-0.587,-0.5859,-0.5843,-0.5833,-0.5811,-0.5799,-0.5785,-0.5773,-0.5769,-0.5762,-0.5758,-0.5763,-0.5764,-0.5757,-0.5757,-0.575,-0.575,-0.575,-0.575,0,-0.6003,-0.5984,-0.5967,-0.5941,-0.5935,-0.5927,-0.5905,-0.5896,-0.5882,-0.5869,-0.5864,-0.5842,-0.5827,-0.5809,-0.5788,-0.578,-0.5769,-0.5763,-0.5775,-0.5773,-0.5773,-0.5774,-0.5777,-0.5777,-0.5764,-0.5764,-0.5764,0,-0.6005,-0.5997,-0.597,-0.5961,-0.5949,-0.5935,-0.5925,-0.5905,-0.5895,-0.5873,-0.5867,-0.5851,-0.5837,-0.5814,-0.5797,-0.5781,-0.5775,-0.5778,-0.5773,-0.5778,-0.5776,-0.5776,-0.5776,-0.5779,-0.5779,-0.5779,-0.5779,0,-0.6012,-0.6003,-0.5987,-0.5969,-0.5957,-0.5942,-0.5926,-0.592,-0.5898,-0.5888,-0.5872,-0.5861,-0.584,-0.5824,-0.5806,-0.5794,-0.5784,-0.5781,-0.578,-0.5785,-0.5792,-0.5788,-0.5778,-0.5781,-0.5781,-0.5781,-0.5781,-0.5781,-0.6019,-0.6011,-0.5991,-0.5975,-0.5961,-0.5947,-0.5938,-0.5923,-0.5909,-0.589,-0.588,-0.5864,-0.5847,-0.5822,-0.5811,-0.5799,-0.5795,-0.5794,-0.5793,-0.5793,-0.5795,-0.5794,-0.5796,-0.5796,-0.5796,-0.5796,-0.5796,0,-0.6025,-0.6011,-0.5997,-0.5975,-0.5963,-0.5953,-0.5936,-0.5927,-0.5913,-0.5897,-0.5884,-0.5866,-0.5851,-0.5833,-0.5817,-0.5811,-0.5806,-0.5808,-0.5808,-0.5806,-0.5799,-0.5802,-0.5813,-0.5813,-0.5813,-0.5813,-0.5813,-0.5813,-0.6026,-0.6012,-0.6001,-0.598,-0.5967,-0.5951,-0.5942,-0.593,-0.5917,-0.5898,-0.5885,-0.5873,-0.5857,-0.584,-0.5826,-0.5821,-0.5817,-0.582,-0.5814,-0.5808,-0.5806,-0.5805,-0.5807,-0.5819,-0.5819,-0.5821,-0.5821,-0.5821]},{"header":{"parameterUnit":"m.s-1","parameterCategory":1,"la1":30.2991,"la2":30.254,"lo1":-89.0895,"lo2":-89.0444,"dy":0.0017,"dx":0.0017,"nx":28,"ny":28,"refTime":"2025-03-19T03:00:00:Z","depth":0,"parameterNumber":3,"parameterNumberName":"V-component_of_WINDS"},"data":[0,0,0,0,0,0,0,0,0,0,0,0,0,0,0,0,0,0,0,0,0,0,0,0,0,0,0,0,0,0,0,0,0,0,0,0,0,0,0,0,0,0,0,0,0,0,0,0,0,0,0,0,0,0,0,0,0,0,4.8051,4.8051,0,4.8032,4.8032,4.8032,4.803,4.803,4.803,4.803,4.8007,4.8006,4.8005,0,0,0,0,0,0,0,0,0,0,0,0,0,4.8083,4.8082,4.8051,4.8051,4.8051,4.8032,4.8032,4.8032,4.803,4.803,4.803,4.8031,4.8007,4.8006,4.8005,0,0,0,0,0,0,0,0,0,0,0,0,0,4.8067,4.8082,4.8051,4.8047,4.8047,4.8032,4.8032,4.8032,4.803,4.803,4.803,4.8031,4.8008,4.8006,4.8005,4.7991,0,0,4.8001,4.8001,0,0,0,0,0,0,0,0,4.8068,4.8066,4.8048,4.8048,4.8047,4.8034,4.8035,4.8018,4.803,4.8036,4.803,4.8031,4.8015,4.8014,4.8009,4.799,4.7989,4.8001,4.8001,4.8,4.8,0,0,0,0,0,0,0,4.8069,4.8066,4.8043,4.8048,4.8047,4.8046,4.8044,4.8031,4.8024,4.8036,4.8035,4.8033,4.8015,4.801,4.8009,4.7989,4.8001,4.8,4.8,4.7999,4.796,4.7959,0,0,0,0,0,0,4.8071,4.8067,4.8044,4.8043,4.8059,4.8045,4.8043,4.8038,4.8024,4.8023,4.8033,4.8033,4.8012,4.801,4.8008,4.7992,4.8,4.7999,4.7998,4.796,4.796,4.7959,0,0,0,0,0,0,4.8072,4.8069,4.8045,4.8055,4.8052,4.8044,4.8038,4.8037,4.8032,4.8023,4.8021,4.803,4.8012,4.801,4.7996,4.7991,4.7998,4.7997,4.796,4.796,4.7959,4.7959,0,0,0,0,0,0,4.8073,4.8069,4.8064,4.8055,4.8051,4.8034,4.8038,4.8037,4.8031,4.8031,4.8019,4.8017,4.8012,4.7998,4.7995,4.7989,4.7996,4.7961,4.796,4.7959,4.796,4.7959,4.7958,0,0,0,0,0,4.8074,4.8064,4.8064,4.8061,4.8045,4.8034,4.8032,4.8028,4.803,4.8025,4.8019,4.8018,4.7992,4.7997,4.7993,4.7987,4.7961,4.796,4.796,4.796,4.7959,4.7958,0,0,0,0,0,0,4.807,4.8062,4.8063,4.8049,4.8043,4.8034,4.8027,4.8026,4.8017,4.8018,4.8012,4.8009,4.7996,4.799,4.7995,4.7974,4.7977,4.7975,4.7978,4.7977,4.7976,4.7978,4.7995,0,0,0,0,0,4.8069,4.8061,4.8054,4.8043,4.804,4.8034,4.8029,4.8027,4.8019,4.8015,4.8008,4.7999,4.799,4.7983,4.7973,4.7959,4.7957,4.7953,4.7953,4.7952,4.7951,4.7944,4.7942,4.7957,4.7957,4.7957,0,0,4.8064,4.8059,4.8054,4.8042,4.8037,4.8028,4.8031,4.8022,4.8016,4.8013,4.8001,4.7996,4.7986,4.7972,4.7966,4.7967,4.7946,4.7951,4.7951,4.795,4.7943,4.7942,4.794,4.7956,4.7956,4.7957,0,0,4.8051,4.8046,4.8037,4.8032,4.8025,4.8021,4.8019,4.8011,4.8008,4.7996,4.7995,4.7986,4.7969,4.7963,4.7957,4.7945,4.7943,4.7942,4.7937,4.7931,4.793,4.7929,4.7925,4.7924,4.7941,4.7941,4.7941,0,4.8046,4.8034,4.8032,4.8024,4.8019,4.8019,4.801,4.8004,4.7993,4.799,4.7992,4.7972,4.7965,4.7951,4.7948,4.7943,4.7941,4.7943,4.793,4.7929,4.7928,4.7925,4.7923,4.7941,4.7941,4.7941,4.7941,0,4.8028,4.802,4.8014,4.8006,4.8,4.7991,4.7988,4.7982,4.7981,4.7978,4.7966,4.7958,4.7948,4.7944,4.7942,4.793,4.7931,4.7932,4.7934,4.7927,4.7923,4.7922,4.794,4.794,4.7941,4.7941,0,0,4.8011,4.8004,4.8002,4.7999,4.7991,4.7985,4.7976,4.7968,4.7963,4.7956,4.7949,4.7936,4.7937,4.7931,4.7928,4.7923,4.7915,4.7924,4.7924,4.7923,4.7902,4.7901,4.79,4.7914,4.7914,4.7913,4.7903,0,4.7998,4.7984,4.7983,4.797,4.7963,4.7964,4.7957,4.7951,4.7948,4.7941,4.7937,4.7929,4.7931,4.7927,4.7922,4.7917,4.791,4.7917,4.7907,4.7906,4.7909,4.7898,4.7897,4.7887,4.7901,4.7901,4.7901,0,4.798,4.7975,4.7962,4.7957,4.7954,4.7948,4.7941,4.7935,4.7929,4.7927,4.7921,4.792,4.7911,4.7915,4.7903,4.7908,4.7904,4.7901,4.79,4.7899,4.7903,4.7896,4.7884,4.7882,4.7899,4.7899,4.7899,0,4.7969,4.7959,4.795,4.7948,4.7942,4.7938,4.7935,4.7929,4.7925,4.7919,4.7916,4.7908,4.7904,4.7898,4.7894,4.7897,4.7883,4.7886,4.7881,4.7881,4.7877,4.7877,4.7864,4.7874,4.7874,4.7874,4.7874,0,4.7954,4.7946,4.7946,4.794,4.7932,4.7931,4.7922,4.792,4.7915,4.7909,4.7909,4.7903,4.7899,4.7893,4.789,4.7881,4.7878,4.7877,4.7876,4.7877,4.7877,4.7873,4.7874,4.7874,4.7874,4.7874,4.7874,0,4.7941,4.794,4.7931,4.7927,4.7926,4.792,4.7917,4.7911,4.7909,4.7902,4.79,4.7896,4.7889,4.7885,4.7875,4.7874,4.7863,4.7863,4.7866,4.7865,4.7861,4.7861,4.7844,4.7842,4.7854,4.7854,4.7854,0,4.7931,4.7926,4.7922,4.7919,4.7917,4.7911,4.7907,4.7907,4.7903,4.7897,4.7892,4.7885,4.788,4.7868,4.7864,4.7857,4.7856,4.7851,4.7855,4.7856,4.7857,4.7857,4.7857,4.785,4.785,4.785,4.785,0,4.7914,4.7915,4.791,4.7906,4.7902,4.7898,4.7895,4.7892,4.789,4.7886,4.7879,4.7875,4.7867,4.786,4.7853,4.7849,4.7849,4.7849,4.7847,4.7847,4.785,4.7849,4.7864,4.7849,4.7849,4.7849,4.7849,4.7849,4.7903,4.7898,4.7896,4.7891,4.7889,4.7886,4.7881,4.788,4.7875,4.7869,4.7869,4.7862,4.7857,4.7849,4.7845,4.7839,4.784,4.7838,4.7837,4.7837,4.7837,4.7851,4.7838,4.7838,4.7838,4.7838,4.7838,0,4.7886,4.7886,4.7881,4.7877,4.7874,4.7876,4.7872,4.7869,4.7863,4.786,4.7855,4.7849,4.7843,4.7839,4.7833,4.7829,4.7829,4.7828,4.7828,4.7827,4.7836,4.7838,4.7828,4.7828,4.7828,4.7828,4.7828,4.7828,4.7877,4.7871,4.7871,4.7864,4.7862,4.7857,4.7855,4.7852,4.785,4.7843,4.7838,4.7837,4.7834,4.7828,4.7823,4.7822,4.7819,4.7818,4.7817,4.7825,4.7826,4.7827,4.7829,4.7818,4.7818,4.7809,4.7809,4.7809]}]]